This demonstration page uses our WeatherBlox Daily Observations layout. Learn more.

Left ArrowRight Arrow

30.21309, -93.2044

Hourly Observations for July 1, 2021

Temp ( °F °C ) Dew Point ( °F °C ) Humidity (%) Winds ( mph kmh ) Pressure ( in mb ) Visibility ( mi km ) Precip ( " mm )
12:15 am 00:15 Partly Cloudy 78 25.7 75 24 90 90 Calm 30.03 1017 10 16 0.00 0.00
12:35 am 00:35 Clear 78 25.5 75 24.1 92 92 Calm 30.03 1017 10 16 0.00 0.00
12:55 am 00:55 Clear 78 25.5 75 24 91 91 Calm 30.02 1017 10 16 0.00 0.00
1:15 am 01:15 Clear 77 25 75 23.9 94 94 Calm 30.02 1017 10 16 0.00 0.00
1:35 am 01:35 Clear 77 24.8 75 23.7 94 94 Calm 30.01 1016 10 16 0.00 0.00
1:55 am 01:55 Clear 76 24.5 74 23.5 94 94 Calm 30.01 1016 10 16 0.00 0.00
2:35 am 02:35 Clear 76 24.6 75 23.7 95 95 SE 3 6 30.00 1016 10 16 0.00 0.00
2:55 am 02:55 Partly Cloudy 76 24.6 74 23.6 94 94 Calm 30.00 1016 10 16 0.00 0.00
3:15 am 03:15 Clear 77 24.9 75 23.7 93 93 Calm 29.99 1016 10 16 0.00 0.00
3:35 am 03:35 Clear 77 25.2 74 23.5 90 90 Calm 30.00 1016 10 16 0.00 0.00
3:55 am 03:55 Clear 77 25.2 74 23.6 91 91 Calm 29.99 1016 10 16 0.00 0.00
4:15 am 04:15 Clear 77 24.8 74 23.4 92 92 Calm 29.99 1016 10 16 0.00 0.00
4:35 am 04:35 Clear 75 24 74 23.1 95 95 Calm 29.99 1016 10 16 0.00 0.00
4:55 am 04:55 Clear 76 24.4 74 23.5 95 95 Calm 29.99 1016 10 16 0.00 0.00
5:15 am 05:15 Clear 76 24.3 74 23.4 95 95 NNE 3 6 29.99 1016 10 16 0.00 0.00
5:35 am 05:35 Clear 76 24.4 74 23.4 94 94 NE 3 6 29.99 1016 10 16 0.00 0.00
6:00 am 06:00 Mostly Clear 75 24 73 23 94 94 Calm 29.99 1016 10 16 0.00 0.00
6:47 am 06:47 Mostly Sunny 75 24 75 24 100 100 Calm 30.00 1016 10 16 0.00 0.00
7:55 am 07:55 Mostly Sunny 79 26 75 24 89 89 Calm 30.01 1016 10 16 0.00 0.00
8:45 am 08:45 Partly Cloudy 82 28 73 23 74 74 Calm 30.02 1017 10 16 0.00 0.00
9:53 am 09:53 Mostly Cloudy 84 29 73 23 70 70 SE 6 9 30.02 1017 10 16 0.00 0.00
10:50 am 10:50 Mostly Cloudy 84 29 72 22 66 66 Calm 30.03 1017 10 16 0.00 0.00
11:55 am 11:55 Mostly Cloudy 88 31 72 22 59 59 Calm 30.02 1017 10 16 0.00 0.00
12:51 pm 12:51 Mostly Cloudy 90 32 73 23 59 59 ESE 8 13 30.00 1016 10 16 0.00 0.00
1:50 pm 13:50 Mostly Cloudy 90 32 72 22 55 55 E 6 9 29.97 1015 10 16 0.00 0.00
2:55 pm 14:55 Mostly Cloudy 90 32 73 23 59 59 SSE 8 13 29.95 1014 10 16 0.00 0.00
3:55 pm 15:55 Partly Cloudy 90 32 73 23 59 59 SSW 9 15 29.93 1014 10 16 0.00 0.00
4:50 pm 16:50 Mostly Cloudy 91 33 73 23 56 56 S 10 17 29.92 1013 10 16 0.00 0.00
5:50 pm 17:50 Partly Cloudy 86 30 73 23 66 66 S 12 19 29.91 1013 10 16 0.00 0.00
6:50 pm 18:50 Partly Cloudy 86 30 73 23 66 66 SSW 10 17 29.91 1013 10 16 0.00 0.00
7:50 pm 19:50 Partly Cloudy 84 29 73 23 70 70 SSW 8 13 29.93 1014 10 16 0.00 0.00
8:50 pm 20:50 Mostly Cloudy with Nearby Thunderstorms 82 28 73 23 74 74 WSW 5 7 29.95 1014 10 16 0.00 0.00
9:50 pm 21:50 Partly Cloudy 79 26 73 23 84 84 W 5 7 29.95 1014 10 16 0.00 0.00
10:15 pm 22:15 Clear 79 26.3 74 23.5 85 85 S 5 7 29.94 1014 10 16 0.00 0.00
10:35 pm 22:35 Clear 79 26.1 74 23.5 86 86 S 7 11 29.95 1014 10 16 0.00 0.00
10:55 pm 22:55 Clear 79 25.9 75 23.7 88 88 S 6 9 29.96 1015 10 16 0.00 0.00
11:15 pm 23:15 Partly Cloudy 79 26.2 75 23.8 87 87 S 6 9 29.96 1015 10 16 0.00 0.00
11:35 pm 23:35 Mostly Cloudy 80 26.8 75 23.7 83 83 SW 5 7 29.96 1015 10 16 0.00 0.00
11:55 pm 23:55 Cloudy 80 26.7 75 23.8 84 84 SW 6 9 29.96 1015 10 16 0.00 0.00

Powered by AerisWeather